ARG1612 SABE-SAZM

Flight info

Callsign ARG1612
Flight time 0h 45m
Altitude 27000
Route PTA8 GBE UW29 VOTRA VOTRA1Q
Aircraft B38M/M-SDE1FGHILORVWXY/HB1

Departure

Time 2026-04-22 00:43
Airport Aeroparque Jorge Newbery (SABE)

Arrival

Time 2026-04-22 01:29
Airport Ástor Piazzola International Airport (SAZM)
Time Latitude Longitude Altitude Speed Heading
2026-04-22 00:26 -34.55824 -58.41408 26 ft 0 kts 208°
2026-04-22 00:34 -34.55822 -58.41407 26 ft 2 kts 208°
2026-04-22 00:34 -34.55809 -58.41398 26 ft 2 kts 208°
2026-04-22 00:35 -34.55795 -58.41389 26 ft 2 kts 230°
2026-04-22 00:35 -34.55790 -58.41372 26 ft 2 kts 273°
2026-04-22 00:35 -34.55793 -58.41359 26 ft 0 kts 301°
2026-04-22 00:35 -34.55796 -58.41352 26 ft 1 kts 306°
2026-04-22 00:36 -34.55797 -58.41352 26 ft 0 kts 306°
2026-04-22 00:38 -34.55790 -58.41364 26 ft 6 kts 303°
2026-04-22 00:38 -34.55756 -58.41433 26 ft 9 kts 301°
2026-04-22 00:38 -34.55727 -58.41497 26 ft 7 kts 293°
2026-04-22 00:38 -34.55733 -58.41547 26 ft 8 kts 233°
2026-04-22 00:39 -34.55773 -58.41633 26 ft 10 kts 274°
2026-04-22 00:39 -34.55745 -58.41713 26 ft 12 kts 298°
2026-04-22 00:39 -34.55692 -58.41819 26 ft 17 kts 303°
2026-04-22 00:39 -34.55616 -58.41954 26 ft 21 kts 304°
2026-04-22 00:40 -34.55541 -58.42088 26 ft 16 kts 307°
2026-04-22 00:40 -34.55476 -58.42189 26 ft 14 kts 303°
2026-04-22 00:40 -34.55418 -58.42287 26 ft 13 kts 306°
2026-04-22 00:40 -34.55370 -58.42371 26 ft 12 kts 293°
2026-04-22 00:41 -34.55365 -58.42484 26 ft 12 kts 238°
2026-04-22 00:41 -34.55409 -58.42496 26 ft 4 kts 128°
2026-04-22 00:41 -34.55412 -58.42490 26 ft 0 kts 124°
2026-04-22 00:43 -34.55536 -58.42271 26 ft 78 kts 123°
2026-04-22 00:43 -34.56011 -58.41428 45 ft 157 kts 127°
2026-04-22 00:43 -34.56661 -58.40258 640 ft 178 kts 125°
2026-04-22 00:44 -34.57354 -58.39006 1477 ft 189 kts 124°
2026-04-22 00:44 -34.57875 -58.37439 2070 ft 215 kts 96°
2026-04-22 00:44 -34.57609 -58.35614 2859 ft 233 kts 62°
2026-04-22 00:44 -34.56567 -58.34060 3703 ft 249 kts 36°
2026-04-22 00:45 -34.55143 -58.32933 4883 ft 249 kts 30°
2026-04-22 00:45 -34.53697 -58.31827 6162 ft 246 kts 34°
2026-04-22 00:45 -34.52420 -58.30398 6822 ft 264 kts 54°
2026-04-22 00:45 -34.51794 -58.28333 7608 ft 262 kts 88°
2026-04-22 00:46 -34.52157 -58.26226 8324 ft 266 kts 117°
2026-04-22 00:46 -34.53409 -58.24462 8538 ft 285 kts 143°
2026-04-22 00:46 -34.55047 -58.23071 9258 ft 288 kts 147°
2026-04-22 00:46 -34.56716 -58.21762 9972 ft 291 kts 148°
2026-04-22 00:47 -34.58453 -58.20412 10339 ft 307 kts 148°
2026-04-22 00:47 -34.60307 -58.18973 10615 ft 324 kts 148°
2026-04-22 00:47 -34.62201 -58.17500 11219 ft 328 kts 148°
2026-04-22 00:47 -34.64132 -58.15998 11860 ft 331 kts 148°
2026-04-22 00:48 -34.66100 -58.14466 12475 ft 334 kts 148°
2026-04-22 00:48 -34.68054 -58.12944 13049 ft 338 kts 148°
2026-04-22 00:48 -34.70046 -58.11391 13616 ft 342 kts 149°
2026-04-22 00:48 -34.72129 -58.09898 14161 ft 344 kts 160°
2026-04-22 00:49 -34.74423 -58.09426 14671 ft 341 kts 186°
2026-04-22 00:49 -34.76761 -58.09957 15226 ft 340 kts 197°
2026-04-22 00:49 -34.79014 -58.10742 15766 ft 342 kts 199°
2026-04-22 00:49 -34.81342 -58.11593 16313 ft 344 kts 199°
2026-04-22 00:50 -34.83631 -58.12434 16833 ft 347 kts 200°
2026-04-22 00:50 -34.85931 -58.13281 17337 ft 349 kts 200°
2026-04-22 00:50 -34.88273 -58.14143 17834 ft 351 kts 200°
2026-04-22 00:50 -34.90626 -58.15011 18356 ft 352 kts 200°
2026-04-22 00:51 -34.92939 -58.15863 18861 ft 353 kts 200°
2026-04-22 00:51 -34.95299 -58.16733 19346 ft 354 kts 200°
2026-04-22 00:51 -34.97658 -58.17604 19808 ft 355 kts 199°
2026-04-22 00:51 -35.00052 -58.18488 20252 ft 357 kts 199°
2026-04-22 00:52 -35.02440 -58.19370 20672 ft 359 kts 199°
2026-04-22 00:52 -35.04836 -58.20256 21069 ft 361 kts 199°
2026-04-22 00:52 -35.07297 -58.21038 21448 ft 366 kts 189°
2026-04-22 00:52 -35.09866 -58.21102 21820 ft 371 kts 180°
2026-04-22 00:53 -35.12445 -58.20909 22183 ft 374 kts 179°
2026-04-22 00:53 -35.15064 -58.20676 22542 ft 376 kts 179°
2026-04-22 00:53 -35.17667 -58.20441 22885 ft 379 kts 179°
2026-04-22 00:53 -35.20310 -58.20203 23228 ft 381 kts 179°
2026-04-22 00:54 -35.22955 -58.19963 23556 ft 383 kts 179°
2026-04-22 00:54 -35.25637 -58.19720 23877 ft 385 kts 179°
2026-04-22 00:54 -35.28304 -58.19479 24190 ft 387 kts 179°
2026-04-22 00:54 -35.31021 -58.19233 24495 ft 390 kts 179°
2026-04-22 00:55 -35.33751 -58.18985 24797 ft 392 kts 179°
2026-04-22 00:55 -35.36447 -58.18740 25084 ft 394 kts 179°
2026-04-22 00:55 -35.41862 -58.18248 25635 ft 398 kts 179°
2026-04-22 00:56 -35.44610 -58.17999 25895 ft 400 kts 179°
2026-04-22 00:56 -35.47429 -58.17742 26161 ft 402 kts 179°
2026-04-22 00:56 -35.50213 -58.17489 26414 ft 404 kts 180°
2026-04-22 00:56 -35.53012 -58.17233 26658 ft 406 kts 180°
2026-04-22 00:57 -35.55804 -58.16979 26899 ft 407 kts 180°
2026-04-22 00:57 -35.58628 -58.16720 26980 ft 403 kts 180°
2026-04-22 00:57 -35.60820 -58.16518 26990 ft 401 kts 180°
2026-04-22 00:57 -35.63557 -58.16266 26990 ft 396 kts 180°
2026-04-22 00:58 -35.66307 -58.16012 26984 ft 387 kts 180°
2026-04-22 00:58 -35.68606 -58.15795 26988 ft 367 kts 180°
2026-04-22 00:58 -35.71101 -58.15560 26996 ft 360 kts 180°
2026-04-22 00:58 -35.73125 -58.15375 26996 ft 366 kts 180°
2026-04-22 00:59 -35.75670 -58.15144 26996 ft 372 kts 180°
2026-04-22 00:59 -35.78293 -58.14905 26995 ft 378 kts 180°
2026-04-22 00:59 -35.80911 -58.14668 26994 ft 383 kts 180°
2026-04-22 00:59 -35.83585 -58.14424 26994 ft 389 kts 180°
2026-04-22 01:00 -35.86324 -58.14173 26993 ft 394 kts 180°
2026-04-22 01:00 -35.89061 -58.13923 26993 ft 398 kts 180°
2026-04-22 01:00 -35.91818 -58.13671 26993 ft 403 kts 180°
2026-04-22 01:00 -35.93681 -58.13500 26993 ft 406 kts 180°
2026-04-22 01:01 -35.97479 -58.13151 26992 ft 411 kts 180°
2026-04-22 01:01 -36.00330 -58.12888 26991 ft 412 kts 180°
2026-04-22 01:01 -36.03176 -58.12625 26991 ft 412 kts 180°
2026-04-22 01:01 -36.06021 -58.12362 26991 ft 412 kts 180°
2026-04-22 01:02 -36.08859 -58.12099 26991 ft 412 kts 180°
2026-04-22 01:02 -36.11704 -58.11835 26992 ft 412 kts 180°
2026-04-22 01:02 -36.14576 -58.11568 26993 ft 412 kts 180°
2026-04-22 01:02 -36.17357 -58.11310 26993 ft 412 kts 180°
2026-04-22 01:03 -36.20198 -58.11046 26993 ft 412 kts 180°
2026-04-22 01:03 -36.23052 -58.10781 26992 ft 412 kts 180°
2026-04-22 01:03 -36.25900 -58.10516 26992 ft 412 kts 180°
2026-04-22 01:03 -36.28770 -58.10248 26993 ft 412 kts 180°
2026-04-22 01:04 -36.31601 -58.09984 26988 ft 410 kts 180°
2026-04-22 01:04 -36.34406 -58.09718 26981 ft 388 kts 180°
2026-04-22 01:04 -36.37028 -58.09467 26999 ft 376 kts 180°
2026-04-22 01:04 -36.39626 -58.09221 26990 ft 369 kts 180°
2026-04-22 01:05 -36.42199 -58.08980 26994 ft 370 kts 180°
2026-04-22 01:05 -36.44774 -58.08740 26993 ft 370 kts 180°
2026-04-22 01:05 -36.47362 -58.08499 26822 ft 373 kts 180°
2026-04-22 01:05 -36.49947 -58.08258 26271 ft 372 kts 180°
2026-04-22 01:06 -36.52521 -58.08015 25688 ft 367 kts 180°
2026-04-22 01:06 -36.55056 -58.07776 25115 ft 362 kts 180°
2026-04-22 01:06 -36.57537 -58.07542 24544 ft 357 kts 179°
2026-04-22 01:06 -36.59985 -58.07310 23976 ft 352 kts 179°
2026-04-22 01:07 -36.62431 -58.07080 23425 ft 347 kts 179°
2026-04-22 01:07 -36.64794 -58.06856 22894 ft 343 kts 179°
2026-04-22 01:07 -36.67156 -58.06634 22366 ft 339 kts 179°
2026-04-22 01:07 -36.69511 -58.06412 21837 ft 336 kts 179°
2026-04-22 01:08 -36.71849 -58.06192 21291 ft 334 kts 179°
2026-04-22 01:08 -36.74131 -58.05977 20764 ft 331 kts 179°
2026-04-22 01:08 -36.76422 -58.05762 20253 ft 327 kts 178°
2026-04-22 01:08 -36.78669 -58.05550 19751 ft 325 kts 178°
2026-04-22 01:09 -36.80914 -58.05339 19253 ft 327 kts 178°
2026-04-22 01:09 -36.83208 -58.05126 18742 ft 334 kts 178°
2026-04-22 01:09 -36.85527 -58.04908 18213 ft 332 kts 178°
2026-04-22 01:09 -36.87808 -58.04693 17700 ft 328 kts 178°
2026-04-22 01:10 -36.90099 -58.04477 17187 ft 325 kts 178°
2026-04-22 01:10 -36.92324 -58.04268 16655 ft 321 kts 177°
2026-04-22 01:10 -36.93405 -58.04165 16409 ft 318 kts 178°
2026-04-22 01:10 -36.95612 -58.03959 15913 ft 314 kts 178°
2026-04-22 01:11 -36.97760 -58.03762 15436 ft 305 kts 177°
2026-04-22 01:11 -36.99757 -58.03571 14967 ft 274 kts 177°
2026-04-22 01:11 -37.01506 -58.03399 14476 ft 225 kts 178°
2026-04-22 01:11 -37.02420 -58.03217 11714 ft 222 kts 178°
2026-04-22 01:12 -37.02652 -58.03241 8846 ft 267 kts 153°
2026-04-22 01:12 -37.03930 -58.02537 8629 ft 262 kts 163°
2026-04-22 01:12 -37.05641 -58.02027 7818 ft 238 kts 169°
2026-04-22 01:12 -37.07238 -58.01647 7314 ft 239 kts 169°
2026-04-22 01:13 -37.08917 -58.01281 7005 ft 250 kts 169°
2026-04-22 01:13 -37.10638 -58.00874 7235 ft 250 kts 168°
2026-04-22 01:13 -37.12496 -58.00440 6885 ft 284 kts 170°
2026-04-22 01:13 -37.14473 -58.00020 6648 ft 289 kts 170°
2026-04-22 01:14 -37.16457 -57.99604 6275 ft 284 kts 170°
2026-04-22 01:14 -37.18355 -57.99202 6133 ft 273 kts 170°
2026-04-22 01:14 -37.20192 -57.98809 5990 ft 263 kts 169°
2026-04-22 01:14 -37.21998 -57.98427 5855 ft 262 kts 169°
2026-04-22 01:15 -37.23814 -57.98046 5717 ft 261 kts 169°
2026-04-22 01:15 -37.25603 -57.97671 5628 ft 259 kts 169°
2026-04-22 01:15 -37.27478 -57.97277 5667 ft 284 kts 169°
2026-04-22 01:15 -37.29486 -57.96854 5665 ft 305 kts 170°
2026-04-22 01:16 -37.31630 -57.96404 5654 ft 313 kts 170°
2026-04-22 01:16 -37.33805 -57.95950 5654 ft 314 kts 170°
2026-04-22 01:16 -37.35964 -57.95499 5654 ft 315 kts 170°
2026-04-22 01:16 -37.38139 -57.95044 5654 ft 315 kts 170°
2026-04-22 01:17 -37.40305 -57.94591 5654 ft 315 kts 170°
2026-04-22 01:17 -37.42468 -57.94140 5654 ft 315 kts 170°
2026-04-22 01:17 -37.44634 -57.93688 5654 ft 315 kts 170°
2026-04-22 01:17 -37.46810 -57.93234 5654 ft 315 kts 170°
2026-04-22 01:18 -37.48982 -57.92780 5654 ft 315 kts 170°
2026-04-22 01:18 -37.51127 -57.92332 5654 ft 315 kts 170°
2026-04-22 01:18 -37.51854 -57.92181 5654 ft 315 kts 170°
2026-04-22 01:18 -37.55460 -57.91429 5656 ft 315 kts 170°
2026-04-22 01:19 -37.56879 -57.91133 5554 ft 312 kts 170°
2026-04-22 01:19 -37.59601 -57.90567 5266 ft 278 kts 169°
2026-04-22 01:19 -37.61452 -57.90183 5043 ft 263 kts 169°
2026-04-22 01:19 -37.63247 -57.89809 4762 ft 259 kts 169°
2026-04-22 01:20 -37.65005 -57.89443 4488 ft 256 kts 169°
2026-04-22 01:20 -37.66752 -57.89080 4188 ft 246 kts 169°
2026-04-22 01:20 -37.67863 -57.88851 3983 ft 240 kts 169°
2026-04-22 01:20 -37.69491 -57.88515 3674 ft 232 kts 169°
2026-04-22 01:21 -37.71560 -57.88088 3295 ft 222 kts 168°
2026-04-22 01:21 -37.73059 -57.87781 3020 ft 215 kts 168°
2026-04-22 01:21 -37.74500 -57.87487 2962 ft 203 kts 168°
2026-04-22 01:21 -37.74967 -57.87392 2962 ft 202 kts 168°
2026-04-22 01:22 -37.78396 -57.86313 2971 ft 199 kts 146°
2026-04-22 01:22 -37.79400 -57.85142 2965 ft 193 kts 127°
2026-04-22 01:22 -37.80139 -57.83780 2815 ft 181 kts 121°
2026-04-22 01:23 -37.80772 -57.82424 2625 ft 176 kts 120°
2026-04-22 01:23 -37.81406 -57.81131 2454 ft 164 kts 121°
2026-04-22 01:23 -37.81998 -57.79953 2274 ft 155 kts 121°
2026-04-22 01:23 -37.82580 -57.78798 2281 ft 156 kts 121°
2026-04-22 01:24 -37.83156 -57.77655 2267 ft 155 kts 121°
2026-04-22 01:24 -37.83741 -57.76491 2263 ft 155 kts 121°
2026-04-22 01:24 -37.84313 -57.75361 2241 ft 143 kts 121°
2026-04-22 01:24 -37.84859 -57.74288 2279 ft 144 kts 122°
2026-04-22 01:25 -37.85401 -57.73221 2277 ft 143 kts 121°
2026-04-22 01:25 -37.85927 -57.72134 2254 ft 142 kts 120°
2026-04-22 01:25 -37.86446 -57.71056 2278 ft 143 kts 121°
2026-04-22 01:25 -37.86977 -57.69987 2221 ft 146 kts 121°
2026-04-22 01:26 -37.87519 -57.68914 2037 ft 144 kts 121°
2026-04-22 01:26 -37.88072 -57.67828 1845 ft 144 kts 121°
2026-04-22 01:26 -37.88614 -57.66764 1656 ft 144 kts 121°
2026-04-22 01:26 -37.89161 -57.65690 1455 ft 143 kts 121°
2026-04-22 01:27 -37.89697 -57.64640 1263 ft 143 kts 121°
2026-04-22 01:27 -37.90242 -57.63569 1068 ft 143 kts 121°
2026-04-22 01:27 -37.90784 -57.62506 873 ft 143 kts 121°
2026-04-22 01:27 -37.91327 -57.61442 681 ft 143 kts 120°
2026-04-22 01:28 -37.91862 -57.60391 494 ft 143 kts 121°
2026-04-22 01:28 -37.92406 -57.59339 263 ft 142 kts 120°
2026-04-22 01:28 -37.92937 -57.58286 107 ft 141 kts 120°
2026-04-22 01:28 -37.93421 -57.57302 77 ft 115 kts 121°
2026-04-22 01:29 -37.93757 -57.56646 77 ft 66 kts 121°
2026-04-22 01:29 -37.93937 -57.56329 77 ft 13 kts 161°
2026-04-22 01:29 -37.93975 -57.56336 77 ft 1 kts 223°
2026-04-22 01:29 -37.93989 -57.56359 77 ft 0 kts 239°
2026-04-22 01:30 -37.93996 -57.56375 77 ft 9 kts 239°
2026-04-22 01:30 -37.94020 -57.56543 77 ft 26 kts 297°
2026-04-22 01:30 -37.93908 -57.56782 77 ft 27 kts 299°
2026-04-22 01:30 -37.93858 -57.56888 77 ft 22 kts 303°
2026-04-22 01:31 -37.93805 -57.57017 77 ft 32 kts 300°
2026-04-22 01:31 -37.93633 -57.57404 77 ft 56 kts 300°
2026-04-22 01:31 -37.93481 -57.57751 77 ft 34 kts 301°
2026-04-22 01:31 -37.93397 -57.57941 77 ft 20 kts 294°
2026-04-22 01:32 -37.93374 -57.57997 77 ft 7 kts 284°
2026-04-22 01:32 -37.93392 -57.58039 77 ft 7 kts 213°
2026-04-22 01:32 -37.93412 -57.58050 77 ft 0 kts 218°
2026-04-22 01:32 -37.93417 -57.58063 77 ft 1 kts 268°
2026-04-22 01:33 -37.93412 -57.58078 77 ft 2 kts 301°
2026-04-22 01:33 -37.93401 -57.58087 77 ft 5 kts 348°
2026-04-22 01:33 -37.93395 -57.58087 77 ft 0 kts